Location: Drummondville
(45.8830°N, 72.4830°W)
Time: 02:42:45
(UTC-05:00)

N. Korean satellite - Pass Details

Date: 10 November 2017
Orbit: 460 x 514 km, 97.2° (Epoch: 23 November)

Event Time Altitude Azimuth Distance (km) Brightness Sun altitude
Rises 18:48:08 0° 207° (SSW) 2,475 10.5 -25.2°
Reaches altitude 10° 18:50:51 10° 232° (SW) 1,609 9.8 -25.7°
Maximum altitude 18:52:54 15° 269° (W) 1,341 9.7 -26.1°
Drops below altitude 10° 18:54:59 10° 305° (NW) 1,627 9.9 -26.4°
Sets 18:57:46 0° 330° (NNW) 2,518 10.6 -26.9°
